This demonstration page uses our WeatherBlox Daily Observations layout. Learn more.

Left ArrowRight Arrow

44.8408, -93.29828

Hourly Observations for June 14, 2015

Temp ( °F °C ) Dew Point ( °F °C ) Humidity (%) Winds ( mph kmh ) Pressure ( in mb ) Visibility ( mi km ) Precip ( " mm )
12:19 am 00:19 Cloudy 66 18.9 61 16.1 84 84 E 6 9 29.91 1013 10 16 0.00 0.00
12:53 am 00:53 Cloudy 66 18.9 61 16.1 84 84 ENE 6 9 29.89 1012 10 16 0.00 0.00
1:53 am 01:53 Cloudy 65 18.3 61 16.1 87 87 E 5 7 29.88 1012 10 16 0.00 0.00
2:53 am 02:53 Partly Cloudy 65 18.3 61 16.1 87 87 Calm 29.88 1012 10 16 0.00 0.00
3:53 am 03:53 Mostly Clear 62 16.7 60 15.6 93 93 NE 3 6 29.87 1012 10 16 0.00 0.00
4:53 am 04:53 Mostly Cloudy 62 16.7 61 16.1 96 96 Calm 29.88 1012 10 16 0.00 0.00
5:53 am 05:53 Mostly Cloudy 63 17.2 61 16.1 93 93 Calm 29.88 1012 9 14 0.00 0.00
6:53 am 06:53 Mostly Cloudy 65 18.3 62 16.7 90 90 ENE 3 6 29.89 1012 9 14 0.00 0.00
7:53 am 07:53 Mostly Cloudy 67 19.4 63 17.2 87 87 NE 3 6 29.90 1012 10 16 0.00 0.00
8:53 am 08:53 Mostly Cloudy 69 20.6 63 17.2 81 81 ENE 9 15 29.89 1012 10 16 0.00 0.00
9:53 am 09:53 Mostly Cloudy 71 21.7 64 17.8 79 79 ESE 5 7 29.89 1012 10 16 0.00 0.00
10:53 am 10:53 Mostly Cloudy 74 23.3 64 17.8 71 71 VRB 5 7 29.90 1012 10 16 0.00 0.00
11:53 am 11:53 Mostly Cloudy 77 25 63 17.2 62 62 VRB 5 7 29.91 1013 10 16 0.00 0.00
12:53 pm 12:53 Mostly Cloudy 80 26.7 62 16.7 54 54 VRB 3 6 29.90 1013 10 16 0.00 0.00
1:53 pm 13:53 Mostly Cloudy 80 26.7 60 15.6 51 51 W 6 9 29.88 1012 10 16 0.00 0.00
2:53 pm 14:53 Partly Cloudy 82 27.8 61 16.1 49 49 SE 6 9 29.85 1011 10 16 0.00 0.00
3:53 pm 15:53 Partly Cloudy 83 28.3 60 15.6 46 46 S 8 13 29.83 1010 10 16 0.00 0.00
4:53 pm 16:53 Partly Cloudy 83 28.3 59 15 44 44 VRB 5 7 29.84 1010 10 16 0.00 0.00
5:53 pm 17:53 Partly Cloudy 85 29.4 58 14.4 40 40 SSW 7 11 29.83 1010 10 16 0.00 0.00
6:53 pm 18:53 Mostly Cloudy 84 28.9 59 15 43 43 WSW 8 13 29.82 1010 10 16 0.00 0.00
7:53 pm 19:53 Mostly Cloudy 83 28.3 59 15 44 44 VRB 7 11 29.83 1010 10 16 0.00 0.00
8:53 pm 20:53 Cloudy 81 27.2 60 15.6 49 49 SSE 5 7 29.84 1011 10 16 0.00 0.00
9:53 pm 21:53 Cloudy 80 26.7 61 16.1 52 52 S 6 9 29.86 1011 10 16 0.00 0.00
10:53 pm 22:53 Cloudy 79 26.1 61 16.1 54 54 S 7 11 29.87 1011 10 16 0.00 0.00
11:53 pm 23:53 Cloudy 78 25.6 61 16.1 56 56 S 9 15 29.85 1011 10 16 0.00 0.00

Powered by AerisWeather